Weather Roundup
Issued by NWS Springfield, MO

Home | Current Version | Previous Version | Text Only | Print | Product List | Glossary On
Versions: 1 2 3 4 5 6 7 8 9 10 11 12 13 14 15 16 17 18 19 20 21 22 23 24 25 26 27 28 29 30 31 32 33 34 35 36 37 38 39 40 41 42 43 44 45 46 47 48 49 50
000
NZUS99 KSGF 240457
HRRSGF

HOURLY WEATHER
NATIONAL WEATHER SERVICE SPRINGFIELD MO
1100 PM CST THU NOV 23 2017

......SGF CWA......

CITY           SKY/WX    TMP DP  RH WIND       PRES   REMARKS
SPRINGFIELD    CLOUDY    39  31  72 SE6       29.96F WCI  35
JOPLIN         CLOUDY    47  32  56 S8        29.97F
WEST PLAINS    CLEAR     43  27  53 W3        29.98F
ROLLA          CLEAR     42  31  64 SW8       29.96R

......SURROUNDING SGF CWA......

CITY           SKY/WX    TMP DP  RH WIND       PRES   REMARKS
CHANUTE        PTCLDY    48  33  56 S7        29.93F
PARSONS        PTCLDY    49  32  52 S6        29.94F
COFFEYVILLE    CLOUDY    45  32  60 S6        29.94F
EMPORIA        CLOUDY    50  34  54 S12       29.89F
HARRISON AR    CLEAR     48  29  47 CALM      29.99F

......KANSAS AND MISSOURI......

CITY           SKY/WX    TMP DP  RH WIND       PRES   REMARKS
KANSAS CTY INT PTCLDY    50  37  61 S12       29.87F
SEDALIA        CLOUDY    50  35  56 SW9       29.94F
ST JOSEPH      PTCLDY    50  37  61 S5        29.85F
ST LOUIS       CLEAR     38  30  73 CALM      29.95F
WICHITA        PTCLDY    46  37  71 S7        29.89F
TOPEKA         CLOUDY    55  37  50 S8        29.86F
OLATHE         CLOUDY    48  35  60 S5        29.90S

......TENNESSEE......

CITY           SKY/WX    TMP DP  RH WIND       PRES   REMARKS
MEMPHIS        NOT AVBL
NASHVILLE      CLEAR     37  27  67 CALM      30.06R

......ARKANSAS.......

CITY           SKY/WX    TMP DP  RH WIND       PRES   REMARKS
FAYETTEVILLE   CLOUDY    41  31  67 CALM      30.01F
FT SMITH       CLEAR     42  34  73 CALM      30.02F
LITTLE ROCK    CLEAR     38  32  79 CALM      30.05F

......OKLAHOMA.......

CITY           SKY/WX    TMP DP  RH WIND       PRES   REMARKS
TULSA          MOCLDY    56  30  37 S10       29.97S
PONCA CITY     CLOUDY    55  33  43 S6        29.93
MCALESTER      MOCLDY    50  30  46 SW5       30.03S
OKLAHOMA CITY  CLOUDY    47  34  60 SE10      29.97F

......IOWA............

CITY           SKY/WX    TMP DP  RH WIND       PRES   REMARKS
DES MOINES     NOT AVBL

......ILLINOIS........

CITY           SKY/WX    TMP DP  RH WIND       PRES   REMARKS
QUINCY         NOT AVBL
CHICAGO        CLEAR     36  26  67 SW3       29.89F




USA.gov is the U.S. government's official web portal to all federal, state and local government web resources and services.